{"data":{"norad_id":69941,"intl_designator":"2026-156CA","name":"ET-001B","alt_names":[],"object_type":"PAYLOAD","status":"ACTIVE","operator":null,"country":"US","launch_date":"2026-07-07","launch_site_code":"AFWTR","launch_vehicle":null,"mission":null,"orbit_class":"UNKNOWN","rcs_meters":null,"size_class":null,"mass_kg":null,"dimensions":null,"purposes":[],"wikipedia_slug":null,"has_3d_model":false,"image_url":null,"decayed_at":null,"tle_current":{"epoch":"2026-09-19T10:21:37.396512Z","epoch_age_seconds":110090,"freshness":"FRESH","line1":"1 69941U 26156CA  26262.43168283  .00003467  00000+0  34168-3 0  9996","line2":"2 69941  97.7422 161.6883 0006298 270.4715  89.5782 14.92667129 11059","mean_motion":14.92667129,"eccentricity":0.0006298,"inclination_deg":97.7422,"raan_deg":161.6883,"arg_perigee_deg":270.4715,"mean_anomaly_deg":89.5782,"bstar":0.00034168,"rev_number":1105,"period_min":96.471609243832,"perigee_km":585.23489767477,"apogee_km":594.01148841393,"semimajor_km":6967.7601930444,"source":"CELESTRAK","updated_at":"2026-09-20T09:00:25.209963Z"}}}